Change the Weather History Date:

Tuesday, December 4, 2012

  Actual Average Record
Temperature  
Mean Temperature 76 °F -  
Max Temperature 81 °F 83 °F 86 °F (1957)
Min Temperature 71 °F 65 °F 59 °F (1949)
Cooling Degree Days 11    
Growing Degree Days 26 (Base 50)    
Moisture  
Dew Point 62 °F    
Average Humidity 66    
Maximum Humidity 100    
Minimum Humidity 45    
Precipitation  
Precipitation 1.04 in - - ()
Sea Level Pressure  
Sea Level Pressure 30.01 in    
Wind  
Wind Speed 4 mph (SSE)    
Max Wind Speed 10 mph    
Max Gust Speed 20 mph    
Visibility 9 miles    
Events Rain    
Averages and records for this station are not official NWS values.
T = Trace of Precipitation, MM = Missing Value Source: NWS Daily Summary

Daily Weather History Graph

Daily Weather History Graph

Search for Another Location

Airport or City:

Trip Planner

Search our weather history database for the weather conditions in past years. The results will help you decide how hot, cold, wet, or windy it might be!

Date:

Astronomy

Dec. 04, 2012 Rise Set
Actual Time 7:03 AM HST 5:55 PM HST
Civil Twilight 6:39 AM HST 6:19 PM HST
Nautical Twilight 6:12 AM HST 6:47 PM HST
Astronomical Twilight 5:44 AM HST 7:14 PM HST
Moon 11:25 PM HST (12/4) 11:29 AM HST (12/4)
Length of Visible Light 11h 39m
Length of Day
10h 51m
Waning Gibbous, 67% of the Moon is Illuminated
Dec 4
Waning Gibbous
Dec 6
Last Quarter
Dec 12
New
Dec 19
First Quarter
Dec 28
Full

Hourly Weather History & Observations

Time (HST) Temp. Heat Index Dew Point Humidity Pressure Visibility Wind Dir Wind Speed Gust Speed Precip Events Conditions
12:56 AM 72.0 °F - 64.0 °F 76% 29.96 in 10.0 mi SE 3.5 mph - N/A   Clear
1:56 AM 72.0 °F - 72.0 °F 100% 29.96 in 10.0 mi SE 4.6 mph - N/A   Clear
2:56 AM 72.0 °F - 66.0 °F 81% 29.95 in 10.0 mi SE 4.6 mph - N/A   Clear
3:56 AM 71.1 °F - - N/A% 29.94 in 10.0 mi East 3.5 mph - N/A   Clear
4:56 AM 71.1 °F - 61.0 °F 70% 29.94 in 10.0 mi East 3.5 mph - N/A   Clear
5:56 AM 71.1 °F - 62.1 °F 73% 29.96 in 10.0 mi East 3.5 mph - N/A   Clear
6:56 AM 72.0 °F - 61.0 °F 68% 29.99 in 10.0 mi ESE 3.5 mph - N/A   Mostly Cloudy
7:56 AM 73.9 °F - 64.0 °F 71% 30.00 in 10.0 mi Calm Calm - N/A   Overcast
8:56 AM 75.9 °F - 66.0 °F 71% 30.03 in 10.0 mi Calm Calm - N/A   Overcast
9:56 AM 78.1 °F - 68.0 °F 71% 30.04 in 10.0 mi SSE 4.6 mph - N/A   Overcast
10:56 AM 79.0 °F - 64.9 °F 62% 30.03 in 10.0 mi SE 3.5 mph - N/A   Overcast
11:56 AM 80.1 °F 82.1 °F 66.0 °F 62% 30.01 in 10.0 mi South 8.1 mph - N/A   Overcast
12:56 PM 81.0 °F 83.8 °F 68.0 °F 65% 29.98 in 10.0 mi WSW 4.6 mph - N/A   Overcast
1:56 PM 80.1 °F 87.4 °F 80.1 °F 100% 29.96 in 10.0 mi SSW 6.9 mph - N/A   Overcast
2:56 PM 80.1 °F 86.7 °F 79.0 °F 96% 29.95 in 10.0 mi SW 5.8 mph - N/A   Overcast
3:56 PM 79.0 °F - 66.9 °F 66% 29.96 in 10.0 mi SSE 6.9 mph - N/A   Overcast
4:56 PM 75.9 °F - 64.0 °F 67% 29.96 in 10.0 mi SSE 6.9 mph - 0.00 in   Overcast
5:56 PM 77.0 °F - 61.0 °F 58% 29.96 in 10.0 mi SE 4.6 mph - N/A   Scattered Clouds
6:56 PM 78.1 °F - 55.9 °F 46% 29.97 in 10.0 mi Calm Calm - N/A   Overcast
7:56 PM 78.1 °F - 55.0 °F 45% 30.00 in 10.0 mi Calm Calm - N/A   Mostly Cloudy
8:56 PM 73.0 °F - 59.0 °F 61% 30.03 in 10.0 mi SSE 9.2 mph 19.6 mph 0.01 in Rain Light Rain
9:56 PM 73.0 °F - 53.1 °F 49% 30.05 in 10.0 mi SSE 10.4 mph - 0.03 in Rain Light Rain
10:56 PM 71.1 °F - 59.0 °F 66% 30.10 in 10.0 mi SE 4.6 mph - 0.38 in Rain Rain
11:24 PM 71.6 °F - 53.6 °F 53% 30.10 in - Calm Calm - 0.30 in Rain Heavy Rain
11:31 PM 71.6 °F - 57.2 °F 60% 30.09 in 1.5 mi Calm Calm - 0.48 in Rain Heavy Rain
11:35 PM 71.6 °F - 55.4 °F 57% 30.09 in - Calm Calm - 0.49 in Rain Rain
11:42 PM 71.6 °F - 53.6 °F 53% 30.09 in 10.0 mi Calm Calm - 0.51 in Rain Rain
11:51 PM 71.6 °F - 53.6 °F 53% 30.11 in 6.2 mi SSW 4.6 mph - 0.54 in Rain Rain
11:56 PM 72.0 °F - 55.9 °F 57% 30.11 in 4.0 mi Calm Calm - 0.62 in Rain Heavy Rain